Wind_Speed
23 20 19 17 17 17 17 18 21 24 26 26 25 22 21 21 22 23 23 24 23 23 22 21 21 20 19 19 18 18 17 17 16 16 16 16 18 19 19 20 20 20 20 19 19 20 21 21 21 20 19 18 18 19 20 21 22 22 23 23 24 25
27 24 21 18 16 14 14 17 20 23 25 25 23 21 21 21 22 23 24 24 23 23 22 21 20 20 19 18 18 17 17 17 17 16 16 17 18 18 19 19 20 20 19 18 18 19 20 20 19 18 18 18 18 19 20 21 22 23 23 24 24 25
26 24 22 19 19 20 19 20 22 23 24 22 21 20 20 21 22 23 23 23 23 23 22 21 20 19 18 17 17 17 17 17 16 16 16 17 18 18 18 18 19 19 18 18 17 18 19 19 18 17 17 17 19 20 20 21 22 23 24 25 25 25
23 23 21 20 23 25 25 24 23 23 21 20 20 20 20 21 22 23 23 23 23 23 22 21 20 19 18 17 17 17 18 17 16 16 16 17 18 18 18 18 18 18 18 18 17 17 18 18 18 17 16 17 18 19 20 21 21 23 24 25 26 26
19 19 18 19 22 24 24 24 22 21 19 19 19 19 20 21 22 22 22 23 23 22 22 22 20 19 18 17 17 17 17 17 16 17 17 17 17 17 18 17 17 17 17 18 18 18 18 18 18 18 17 17 18 18 19 20 21 22 23 25 26 27
13 11 13 17 20 23 23 22 20 19 18 18 18 18 20 21 22 22 22 22 22 22 22 22 20 18 18 18 17 17 17 17 17 17 17 16 16 16 17 17 17 17 18 18 18 19 19 19 19 18 18 17 17 18 19 20 21 22 23 24 27 28
11 11 14 19 21 21 21 20 19 18 18 18 18 19 20 21 21 22 22 21 21 20 20 19 19 18 18 18 17 17 17 17 17 16 16 15 15 15 15 16 16 17 17 17 18 19 19 18 18 18 17 17 16 17 18 20 22 23 24 25 27 29
11 12 16 18 18 18 19 18 18 17 17 18 18 19 20 21 21 21 20 20 19 19 18 17 17 17 17 16 16 16 16 17 16 15 14 13 13 13 15 15 16 17 17 17 17 18 18 18 17 16 16 15 16 18 19 19 21 23 24 26 27 29
9 11 13 15 16 17 17 16 15 16 17 18 19 19 20 20 20 19 19 18 18 17 17 16 16 16 15 15 15 15 15 15 14 14 12 12 12 14 15 15 16 16 16 16 16 17 17 17 17 16 16 15 16 18 19 19 20 21 23 24 26 27
8 8 11 15 17 16 15 14 14 14 16 17 18 18 18 18 18 18 17 16 16 15 15 15 14 14 13 13 13 14 13 13 13 13 13 13 13 14 14 14 15 15 16 16 16 16 16 16 17 17 16 16 17 18 19 20 20 21 22 23 24 26
6 5 10 15 16 15 14 13 12 13 14 16 16 17 17 17 17 16 15 14 14 13 12 13 14 12 11 12 13 13 12 11 12 14 15 15 14 14 13 13 13 13 14 14 15 15 15 15 16 16 16 17 17 17 18 19 20 21 22 24 25 25
4 6 11 13 14 13 12 12 13 13 14 15 15 16 17 16 16 15 14 15 15 12 11 13 12 10 10 12 12 12 12 12 13 15 16 15 15 15 14 13 13 13 13 14 14 13 13 13 14 15 16 16 17 17 17 18 19 20 22 23 25 26
7 9 11 12 13 13 13 13 14 15 15 15 15 16 16 16 15 15 15 16 15 11 11 12 9 8 10 12 11 11 12 13 14 15 15 15 15 16 16 15 15 15 15 15 15 14 14 13 14 15 15 15 15 15 16 17 18 20 22 23 24 25
9 10 11 13 14 14 15 15 16 16 16 16 16 16 16 16 16 15 16 16 14 12 11 11 9 9 11 11 11 12 13 13 14 14 14 13 14 14 14 15 16 16 16 17 17 17 16 15 15 15 15 14 13 13 13 14 17 19 21 22 23 24
9 10 12 15 15 15 15 16 16 17 17 17 16 16 16 16 15 15 15 15 15 13 12 12 11 11 11 11 12 13 14 14 14 14 13 13 13 13 13 14 15 16 18 19 19 19 18 17 16 16 16 15 15 15 15 14 15 17 20 21 22 23
8 11 14 15 15 15 15 16 17 17 17 17 16 16 16 16 14 14 14 14 15 14 13 13 13 13 12 12 12 14 14 14 14 14 13 13 13 13 13 14 15 17 19 21 21 21 20 19 18 17 17 17 16 17 17 16 16 17 18 21 22 22
10 13 14 15 15 15 15 16 16 16 16 16 16 16 16 16 14 13 12 13 15 15 13 14 14 15 14 12 12 14 15 15 15 15 14 14 13 12 12 13 15 16 18 20 21 20 20 20 18 18 17 17 17 17 18 17 17 17 18 19 21 22
12 13 13 14 14 15 15 16 16 16 16 17 17 16 16 15 15 13 12 12 14 14 12 13 14 15 16 14 12 14 16 16 16 15 14 14 13 12 11 11 13 14 13 15 18 18 19 19 18 18 17 18 18 17 17 18 18 18 18 19 20 22
12 12 13 14 15 16 16 16 16 16 16 16 16 16 15 15 14 13 12 12 14 13 12 13 14 15 15 14 12 14 17 17 17 16 15 14 13 11 11 11 12 12 11 12 14 15 17 18 18 17 17 18 18 18 18 19 19 19 19 20 20 21
12 13 14 14 15 16 16 16 15 14 14 14 14 15 15 14 14 13 13 13 13 13 12 12 14 15 14 13 13 15 18 18 18 17 15 14 12 11 11 12 13 13 13 12 13 15 16 17 17 17 18 18 19 20 20 20 20 19 20 20 21 21
11 13 14 14 14 15 16 16 14 14 14 14 14 14 15 14 13 13 13 13 13 12 11 11 13 13 13 14 15 17 19 20 19 18 16 14 14 13 13 14 14 15 15 15 16 16 17 18 18 18 18 19 20 20 20 20 20 20 20 20 21 21
10 12 14 13 12 13 15 16 15 14 14 15 15 14 14 14 13 13 13 13 13 12 11 11 12 14 14 15 17 18 20 20 19 18 17 16 15 15 16 16 16 17 17 17 18 18 18 19 19 20 20 20 20 20 20 19 20 20 20 20 21 21
10 12 12 11 11 13 14 15 15 15 16 17 16 16 15 14 14 13 13 13 13 12 12 12 13 15 15 17 18 19 19 19 19 18 18 17 17 17 17 17 18 18 18 18 19 19 19 19 20 20 20 20 20 21 20 20 20 20 20 21 21 21
10 11 12 11 12 14 15 14 13 14 16 17 17 17 17 16 15 14 14 15 15 14 13 13 14 15 16 17 18 19 19 20 19 19 19 19 19 19 18 18 19 20 20 20 20 20 20 20 20 20 20 21 21 21 21 21 21 21 21 21 20 20
11 12 12 12 13 15 16 14 11 11 13 16 16 17 17 17 17 16 15 15 16 16 16 15 15 16 17 18 18 19 19 20 20 20 20 20 20 19 19 19 20 20 21 21 21 21 21 20 20 20 21 21 22 22 22 22 22 22 21 21 21 20
11 12 11 11 12 13 15 14 11 9 10 13 15 16 17 17 18 18 16 15 15 16 17 17 16 16 17 18 18 18 18 19 20 21 20 20 19 19 19 19 20 20 21 21 22 22 22 21 22 22 22 22 23 23 23 23 23 23 23 22 22 21
12 12 11 10 10 11 13 14 13 11 9 10 12 15 17 17 18 19 18 17 15 15 16 17 17 17 18 18 18 18 18 19 19 19 19 18 18 18 18 19 19 20 21 21 22 23 23 23 23 23 23 23 24 24 24 24 24 24 24 24 23 22
13 13 11 10 10 11 13 15 15 14 13 13 14 15 16 18 18 19 19 19 18 16 16 17 17 17 18 18 18 18 18 19 19 18 17 17 17 17 18 18 19 19 20 21 22 22 23 23 24 24 24 24 24 24 24 25 25 25 25 24 24 24
15 14 14 13 13 14 15 17 18 19 19 20 18 15 14 17 19 18 18 18 19 19 17 17 17 17 17 17 17 17 17 18 17 17 16 16 16 16 17 18 18 19 20 20 21 22 22 23 23 23 23 24 24 24 25 25 25 25 25 25 25 25
16 17 17 18 17 17 17 19 20 21 21 21 19 15 14 16 19 20 19 18 18 18 18 17 17 16 15 14 14 15 15 15 16 15 15 15 16 16 17 18 18 19 19 20 20 21 21 22 22 22 23 23 23 24 24 25 25 25 25 25 25 25
18 19 20 20 20 20 20 21 21 21 20 20 20 19 16 16 19 22 22 20 17 16 17 16 16 16 14 12 12 13 13 14 14 14 15 15 16 16 17 17 18 18 18 19 19 19 20 20 20 21 22 22 22 23 24 24 24 24 24 24 24 25
19 20 21 21 22 23 22 23 23 22 21 21 22 23 23 22 24 25 24 22 19 17 16 15 15 15 14 12 11 12 13 13 13 13 13 14 15 15 16 16 16 17 17 17 18 18 18 19 19 20 20 21 21 21 22 22 22 22 22 22 23 24
18 20 22 23 24 24 25 25 25 25 25 25 26 27 27 27 27 25 23 21 19 17 17 15 14 13 13 12 11 12 12 12 12 11 11 12 13 14 14 15 15 15 16 16 16 17 17 18 18 19 19 19 19 19 20 20 20 20 20 20 21 22
17 18 21 24 25 27 27 26 26 27 28 28 29 27 24 24 24 22 21 19 17 16 16 15 13 12 12 11 11 11 11 11 11 11 11 11 11 12 12 13 13 14 14 15 15 16 16 17 17 18 18 18 18 18 18 18 19 18 18 18 19 20
18 19 23 26 28 28 26 25 25 25 25 26 27 24 19 20 21 20 19 18 16 16 16 15 14 13 12 11 10 10 10 10 10 10 10 10 10 10 11 11 12 12 13 13 14 14 15 15 16 16 17 17 17 16 16 17 17 17 17 17 17 17
18 21 24 25 26 26 24 23 21 19 18 19 18 17 17 19 20 19 18 18 17 17 16 15 15 14 13 12 11 10 9 8 8 8 8 9 9 9 9 9 10 10 11 11 12 12 13 13 14 15 15 15 15 15 15 16 17 17 17 16 16 16
18 21 23 23 23 23 22 21 19 17 17 16 15 15 16 18 18 18 19 19 19 18 16 15 15 15 15 14 12 11 9 8 8 8 8 8 8 8 8 8 8 8 9 10 10 11 12 12 13 14 14 14 14 14 14 15 15 16 16 16 16 15
Wind_Direction
289 294 295 275 253 245 245 250 253 253 253 252 251 250 252 257 260 262 265 268 270 271 273 274 276 275 273 271 269 268 267 265 260 255 250 246 242 242 243 244 246 245 242 240 240 242 242 240 236 229 220 217 223 230 234 237 238 239 240 239 240 243
295 296 297 286 266 253 248 248 246 245 244 244 243 246 251 255 259 263 266 269 271 273 275 277 277 276 275 273 271 270 268 265 261 255 250 247 244 241 240 242 245 247 247 244 242 243 243 242 238 230 219 213 218 226 230 235 237 238 239 239 239 241
298 300 294 282 269 260 252 243 237 236 236 238 242 247 251 256 260 263 267 269 272 274 277 279 279 278 277 275 273 269 266 264 261 256 250 247 245 243 241 241 243 246 248 247 244 241 241 241 238 231 220 213 216 224 228 232 237 238 238 238 238 239
300 304 295 277 265 258 251 241 235 235 237 240 244 248 253 257 261 265 269 271 274 276 278 279 279 278 277 276 273 269 266 264 261 256 251 248 247 247 246 245 246 247 246 246 244 240 238 238 238 231 222 215 217 223 227 231 236 240 240 239 239 238
297 302 298 282 270 264 257 248 243 241 241 244 247 252 256 260 264 268 271 273 275 277 277 277 277 278 278 276 272 269 267 264 261 257 253 250 249 251 251 250 251 249 245 245 243 240 238 237 235 231 224 218 218 222 226 230 235 240 243 242 241 240
291 291 292 287 283 277 268 258 251 246 243 246 249 253 258 263 267 269 272 275 277 277 276 276 276 278 279 277 272 269 267 265 262 259 257 254 252 251 251 249 249 247 243 241 241 240 239 238 236 232 226 220 218 221 226 229 232 237 242 243 241 241
287 282 282 284 285 276 264 256 249 245 243 245 249 254 260 264 268 271 274 276 277 277 276 275 275 276 277 277 274 271 268 266 264 262 260 257 253 250 248 246 244 243 240 238 238 239 239 239 238 234 228 222 221 225 227 227 229 232 235 238 239 239
294 290 286 283 276 263 252 247 244 243 245 248 252 257 261 265 269 272 274 276 276 275 275 275 274 274 276 277 275 272 268 266 264 263 262 260 254 248 246 245 243 241 239 237 237 239 240 240 240 238 233 226 224 227 230 228 228 230 233 236 238 238
308 302 293 282 267 254 245 240 238 242 248 253 255 258 262 266 269 271 273 274 274 274 273 274 273 272 274 275 274 271 267 265 263 262 263 260 254 250 248 245 244 242 239 237 236 238 241 243 245 245 242 236 230 229 231 231 231 231 233 236 239 239
317 313 293 274 259 247 238 235 236 241 248 253 256 259 262 264 264 266 268 271 273 272 270 268 266 266 268 270 269 266 264 262 258 257 257 255 254 255 255 252 248 244 242 239 238 238 240 245 249 251 250 246 240 236 235 235 235 234 233 234 236 239
317 300 270 258 252 246 241 240 241 245 251 256 259 259 258 257 258 261 264 267 267 262 259 259 255 252 257 260 261 262 261 258 253 251 250 250 254 259 260 259 255 250 246 244 242 241 243 247 251 254 254 251 247 243 241 242 242 239 236 234 234 235
284 252 250 252 255 255 253 251 251 252 254 257 258 257 254 252 253 255 259 260 254 247 249 254 250 243 248 252 255 257 256 251 246 246 247 249 254 257 256 255 257 256 254 253 251 250 250 253 257 259 260 258 256 251 248 247 247 245 242 239 236 235
245 241 248 255 258 257 256 253 252 252 252 253 254 255 254 250 249 249 253 257 251 241 246 254 250 239 239 244 245 246 246 244 243 243 244 247 251 253 251 250 252 254 257 259 259 258 255 253 255 258 261 262 262 258 252 247 246 246 245 243 240 238
239 245 250 253 254 253 253 251 249 250 250 250 250 251 251 248 246 245 250 260 256 241 240 249 246 233 232 235 235 234 237 239 241 244 244 245 250 254 251 249 251 253 255 257 258 257 256 254 253 254 257 259 262 264 260 252 247 245 245 245 243 241
247 250 253 252 250 249 251 251 250 249 248 248 247 248 248 247 245 245 249 260 262 253 248 248 242 233 230 230 229 229 232 234 237 241 242 244 249 254 252 249 251 253 253 254 254 256 258 259 259 258 258 258 260 262 263 260 253 248 246 246 245 244
262 258 257 253 249 248 250 253 252 252 252 252 252 251 251 251 249 249 250 256 262 262 254 245 239 234 231 227 225 228 230 230 233 235 237 242 247 253 253 251 252 255 256 255 253 254 257 260 262 261 260 259 259 258 259 258 256 252 249 247 245 245
264 258 255 251 250 250 251 254 255 256 257 258 259 257 257 257 256 255 255 258 263 263 255 246 239 235 234 229 221 224 227 228 231 233 234 239 243 246 249 251 254 258 261 256 252 252 255 258 259 258 258 258 257 256 255 253 253 255 253 250 248 246
257 256 251 248 250 251 252 255 256 258 258 259 260 259 260 261 262 261 258 261 264 264 260 255 249 240 236 233 222 222 226 228 230 229 230 236 240 240 239 245 252 258 260 253 250 251 254 256 255 252 252 253 253 253 252 250 252 255 255 253 250 248
251 252 249 249 251 253 254 255 256 257 256 257 259 259 260 260 261 262 259 260 263 263 263 262 255 243 236 232 225 223 225 226 226 224 225 233 240 238 232 236 243 248 249 243 243 248 252 253 252 249 248 249 248 246 246 248 249 252 254 255 253 250
246 250 253 253 254 258 261 262 263 264 264 263 262 260 258 257 258 260 259 259 262 263 265 264 256 246 238 233 224 222 224 224 224 224 224 227 232 232 228 231 235 238 239 235 235 241 248 252 251 250 247 247 247 245 244 245 246 247 250 254 255 253
244 251 253 252 256 264 269 272 274 277 278 275 271 266 261 259 258 258 258 258 261 264 265 266 261 255 249 240 230 225 224 223 223 223 223 223 227 228 229 230 232 234 236 234 233 235 241 247 249 248 247 246 247 248 247 246 246 246 247 250 252 254
244 249 249 248 255 267 275 280 284 287 287 284 282 277 271 267 264 262 262 260 260 262 262 261 259 257 251 243 235 229 226 225 224 223 223 225 228 230 231 231 233 236 236 236 236 235 237 241 246 247 247 247 247 249 248 247 247 248 247 246 248 252
239 240 240 244 253 265 275 282 288 291 291 290 290 289 285 281 275 270 268 266 262 258 254 252 249 250 249 244 240 236 232 230 229 227 227 228 229 230 231 232 236 239 239 239 239 239 239 240 244 247 248 248 248 248 247 247 248 250 249 246 246 250
239 236 235 243 255 263 267 272 283 288 290 292 293 293 292 290 284 276 270 268 265 259 252 246 244 245 247 246 243 240 237 235 234 233 232 232 232 232 233 235 237 241 243 243 244 244 243 244 245 247 250 251 251 250 249 249 249 249 249 246 245 246
247 244 241 245 257 263 259 259 272 286 291 295 295 294 293 291 288 282 272 265 263 261 254 247 242 240 243 244 244 241 239 238 236 236 236 237 238 239 239 239 240 242 243 244 246 247 247 247 248 248 250 252 253 253 252 252 252 252 251 249 247 245
257 259 257 258 264 264 254 249 258 274 286 294 298 299 296 292 289 285 277 267 261 259 255 250 243 238 238 241 244 245 243 240 237 237 237 239 241 242 242 240 240 240 241 242 244 246 247 247 248 248 248 250 252 253 254 254 255 255 255 254 253 250
270 275 273 267 262 256 246 241 244 251 264 284 299 303 300 294 288 284 280 272 264 259 255 250 243 238 236 237 240 244 245 243 240 239 240 240 241 242 242 241 241 241 242 243 244 246 247 248 248 249 248 249 251 252 254 255 256 257 258 258 258 258
275 277 271 259 251 245 240 238 240 244 255 274 288 296 298 294 287 281 276 272 266 261 257 251 243 237 235 235 237 240 243 244 244 243 243 244 245 246 247 247 247 247 247 247 248 249 250 250 251 251 251 251 252 253 254 255 256 258 259 260 261 261
268 266 258 251 249 247 242 242 245 249 258 270 276 281 288 288 285 280 274 269 264 260 258 255 248 240 234 233 234 237 241 245 247 248 248 249 250 251 252 253 253 252 252 251 251 251 252 253 253 254 254 254 255 255 255 256 257 258 259 260 260 261
258 255 252 253 257 256 252 250 251 255 263 270 270 269 278 286 286 283 279 274 268 262 258 257 255 248 239 234 234 236 241 247 252 254 255 255 254 254 255 255 255 255 255 255 255 254 254 255 256 257 257 256 256 256 256 257 257 258 258 258 258 259
258 260 261 265 268 268 266 266 266 267 270 275 274 267 268 281 290 291 286 282 280 272 263 259 259 254 244 236 235 238 241 245 252 256 257 257 256 256 256 255 255 255 255 256 256 256 256 256 257 257 257 257 256 256 257 257 258 258 258 257 257 258
267 272 276 280 281 278 274 273 275 275 273 277 280 275 269 275 289 294 287 283 286 284 273 264 261 256 246 237 234 238 240 242 245 250 254 256 256 256 255 255 255 254 254 254 254 254 254 255 254 254 255 256 256 256 257 258 259 259 259 258 258 259
272 276 278 281 282 279 273 271 273 274 273 275 279 279 277 278 285 289 284 282 287 288 279 267 263 259 248 238 234 236 239 241 243 246 251 255 257 257 257 256 256 255 255 255 254 255 255 255 255 255 256 256 257 257 257 258 258 258 258 258 258 260
278 278 279 278 276 274 272 272 276 276 276 277 276 275 276 278 281 282 279 282 288 290 283 272 267 263 251 238 233 234 237 240 243 246 250 256 260 262 263 263 262 260 259 259 259 258 258 258 258 259 258 258 258 258 257 257 258 257 257 257 257 259
279 280 282 279 274 271 271 272 275 276 277 280 275 268 268 275 278 279 281 285 288 289 286 276 269 266 256 241 231 229 231 236 241 245 249 254 260 265 269 270 269 266 264 263 262 262 262 262 262 262 261 260 259 257 256 255 255 255 255 256 256 257
276 278 279 276 270 269 274 277 277 276 277 281 274 261 264 274 277 277 281 285 287 288 287 278 271 267 262 251 237 228 227 229 234 239 244 249 255 260 264 270 274 275 274 272 271 271 270 269 268 267 265 263 260 258 255 253 252 253 253 254 255 255
277 280 281 280 277 276 281 283 280 276 275 276 270 261 264 272 273 272 276 281 283 284 283 279 275 272 268 261 250 240 233 232 233 234 237 241 245 248 252 259 268 277 283 283 282 282 280 279 277 275 273 271 268 265 261 258 255 255 255 255 256 256
Height
5807 5808 5809 5809 5809 5810 5811 5812 5813 5814 5814 5814 5814 5814 5814 5814 5814 5814 5813 5813 5812 5812 5812 5812 5812 5812 5813 5813 5813 5813 5813 5813 5814 5815 5815 5816 5816 5817 5817 5816 5816 5816 5816 5817 5817 5818 5818 5820 5821 5824 5826 5828 5828 5828 5829 5829 5829 5830 5830 5829 5830 5830
5805 5807 5808 5809 5809 5809 5810 5810 5810 5811 5811 5811 5811 5811 5811 5812 5812 5811 5811 5811 5810 5810 5810 5811 5811 5811 5811 5811 5811 5811 5811 5811 5812 5813 5814 5814 5815 5815 5815 5815 5815 5815 5815 5816 5816 5816 5817 5818 5820 5822 5824 5826 5826 5826 5827 5827 5828 5829 5829 5829 5829 5829
5804 5805 5806 5806 5807 5807 5808 5808 5808 5808 5808 5809 5809 5809 5809 5809 5809 5809 5809 5809 5809 5809 5809 5809 5809 5809 5809 5809 5809 5809 5809 5809 5810 5811 5812 5812 5813 5813 5813 5814 5814 5814 5814 5814 5814 5815 5815 5816 5818 5820 5822 5824 5825 5825 5825 5826 5827 5827 5827 5828 5828 5828
5804 5803 5803 5803 5804 5805 5805 5805 5805 5806 5806 5806 5806 5807 5807 5807 5807 5807 5807 5807 5807 5807 5807 5807 5807 5807 5807 5807 5807 5807 5807 5808 5808 5809 5810 5810 5811 5811 5812 5813 5813 5813 5813 5813 5813 5813 5814 5814 5816 5818 5820 5822 5823 5823 5824 5824 5825 5825 5826 5826 5827 5827
5803 5802 5801 5802 5803 5803 5803 5803 5803 5804 5804 5804 5805 5805 5805 5805 5805 5805 5805 5805 5805 5805 5805 5805 5806 5806 5805 5805 5805 5805 5806 5806 5807 5807 5808 5809 5810 5810 5811 5811 5812 5812 5812 5812 5812 5812 5812 5813 5814 5816 5818 5820 5821 5821 5822 5822 5823 5824 5824 5825 5825 5826
5800 5800 5801 5801 5802 5802 5802 5802 5802 5802 5802 5802 5803 5803 5803 5803 5803 5803 5803 5803 5803 5803 5803 5803 5804 5804 5803 5803 5804 5804 5804 5805 5805 5805 5806 5807 5808 5809 5810 5810 5810 5810 5810 5810 5810 5810 5811 5811 5812 5814 5815 5817 5818 5819 5819 5820 5821 5822 5822 5823 5823 5824
5798 5798 5799 5800 5801 5801 5801 5801 5801 5801 5801 5800 5801 5801 5801 5801 5801 5801 5801 5801 5801 5801 5801 5801 5802 5802 5802 5802 5802 5802 5803 5803 5804 5804 5805 5806 5807 5808 5808 5808 5808 5808 5808 5809 5809 5809 5809 5810 5810 5812 5813 5815 5816 5816 5817 5817 5818 5819 5819 5820 5820 5821
5796 5796 5797 5798 5799 5799 5800 5800 5799 5799 5799 5799 5799 5799 5799 5799 5799 5799 5799 5799 5799 5799 5799 5799 5800 5800 5800 5800 5800 5801 5801 5802 5803 5803 5804 5805 5806 5806 5805 5805 5806 5806 5807 5807 5808 5808 5808 5808 5809 5810 5811 5813 5814 5814 5814 5815 5815 5816 5817 5817 5818 5819
5794 5794 5795 5796 5797 5798 5798 5798 5798 5797 5797 5797 5797 5797 5797 5797 5797 5797 5797 5797 5797 5797 5797 5797 5797 5798 5798 5798 5799 5799 5800 5801 5802 5802 5803 5804 5803 5803 5803 5803 5804 5804 5805 5806 5806 5807 5807 5807 5807 5808 5809 5811 5812 5812 5812 5812 5813 5813 5814 5815 5815 5816
5792 5792 5793 5795 5796 5796 5796 5796 5796 5795 5795 5795 5795 5795 5795 5795 5795 5795 5795 5795 5795 5795 5795 5795 5795 5796 5796 5796 5797 5798 5799 5800 5800 5801 5801 5801 5801 5801 5802 5802 5803 5803 5803 5804 5804 5805 5805 5805 5805 5806 5807 5808 5809 5809 5809 5810 5810 5811 5811 5812 5813 5813
5791 5792 5793 5794 5795 5795 5794 5794 5793 5793 5792 5792 5793 5793 5793 5793 5793 5793 5793 5793 5792 5792 5792 5792 5792 5793 5794 5794 5795 5796 5797 5798 5798 5798 5798 5798 5799 5801 5801 5802 5802 5802 5802 5802 5803 5803 5804 5804 5804 5805 5806 5806 5807 5807 5808 5808 5808 5808 5809 5809 5809 5810
5790 5791 5792 5793 5793 5793 5792 5792 5791 5791 5790 5790 5790 5791 5791 5792 5792 5792 5792 5790 5789 5790 5790 5789 5789 5791 5792 5792 5792 5793 5794 5795 5795 5795 5795 5797 5798 5799 5800 5801 5801 5801 5801 5801 5801 5802 5802 5803 5803 5804 5804 5804 5805 5805 5806 5806 5806 5806 5806 5807 5807 5807
5790 5790 5791 5791 5791 5790 5790 5790 5789 5789 5789 5789 5789 5789 5790 5790 5790 5791 5790 5788 5787 5789 5788 5787 5787 5789 5790 5790 5790 5791 5792 5792 5792 5792 5794 5795 5796 5797 5798 5799 5799 5800 5800 5800 5800 5800 5801 5801 5802 5802 5802 5803 5803 5803 5803 5804 5804 5804 5804 5805 5805 5805
5788 5788 5789 5789 5789 5789 5789 5788 5788 5787 5787 5788 5788 5788 5788 5789 5789 5789 5788 5786 5786 5787 5786 5785 5785 5786 5787 5788 5788 5789 5789 5790 5790 5790 5792 5793 5794 5795 5796 5797 5797 5798 5798 5798 5798 5798 5799 5800 5800 5800 5801 5801 5801 5801 5801 5802 5802 5802 5802 5802 5803 5803
5786 5787 5787 5788 5788 5788 5787 5787 5786 5786 5786 5787 5787 5787 5787 5787 5788 5788 5787 5786 5785 5784 5784 5784 5784 5784 5785 5786 5786 5787 5787 5787 5788 5788 5789 5791 5792 5793 5794 5795 5795 5796 5796 5796 5796 5796 5797 5798 5798 5798 5798 5799 5799 5799 5799 5799 5800 5800 5800 5800 5801 5801
5784 5785 5786 5786 5786 5786 5785 5785 5785 5785 5785 5785 5785 5785 5785 5785 5786 5786 5786 5785 5783 5782 5783 5783 5784 5783 5783 5783 5784 5785 5785 5786 5786 5786 5787 5789 5790 5791 5792 5792 5793 5793 5793 5793 5794 5794 5795 5795 5796 5796 5796 5796 5797 5797 5797 5797 5797 5797 5797 5798 5798 5799
5783 5784 5784 5784 5784 5784 5784 5784 5784 5784 5784 5784 5784 5784 5783 5783 5784 5784 5784 5783 5781 5782 5783 5783 5783 5783 5782 5781 5782 5783 5783 5784 5784 5785 5786 5787 5788 5789 5790 5790 5790 5790 5790 5790 5791 5792 5793 5793 5794 5794 5794 5794 5795 5796 5796 5796 5796 5796 5795 5796 5796 5796
5782 5782 5783 5783 5783 5783 5782 5782 5783 5783 5783 5783 5782 5782 5782 5782 5782 5782 5782 5781 5780 5781 5783 5782 5782 5782 5781 5780 5780 5781 5782 5782 5783 5783 5784 5785 5786 5787 5788 5787 5787 5787 5787 5787 5788 5789 5790 5791 5791 5791 5792 5792 5793 5794 5794 5795 5795 5794 5793 5793 5794 5794
5781 5781 5781 5781 5781 5781 5781 5781 5782 5782 5782 5781 5781 5781 5781 5781 5780 5780 5780 5780 5779 5780 5781 5781 5781 5781 5780 5779 5779 5780 5781 5781 5781 5782 5783 5783 5784 5785 5785 5785 5785 5785 5785 5786 5786 5787 5788 5789 5789 5789 5789 5789 5790 5791 5792 5793 5793 5792 5792 5791 5791 5791
5780 5779 5780 5780 5780 5779 5779 5780 5780 5780 5780 5780 5780 5779 5779 5779 5779 5779 5778 5778 5778 5778 5779 5779 5779 5779 5778 5778 5778 5779 5779 5779 5779 5780 5781 5782 5782 5782 5783 5783 5784 5784 5784 5785 5785 5786 5786 5787 5787 5787 5787 5787 5788 5788 5789 5790 5790 5790 5790 5789 5789 5789
5778 5778 5778 5778 5778 5778 5777 5778 5778 5778 5778 5778 5778 5778 5778 5778 5777 5777 5777 5776 5776 5776 5777 5777 5777 5776 5776 5777 5778 5778 5777 5777 5777 5778 5779 5779 5780 5780 5781 5781 5782 5783 5783 5783 5784 5784 5785 5785 5785 5785 5785 5785 5785 5785 5786 5787 5787 5787 5787 5787 5787 5787
5777 5777 5777 5777 5777 5776 5776 5776 5776 5776 5776 5776 5776 5776 5776 5776 5775 5775 5775 5774 5774 5775 5775 5775 5775 5775 5776 5777 5777 5777 5776 5775 5775 5776 5777 5777 5778 5778 5779 5779 5780 5781 5781 5782 5782 5783 5783 5784 5784 5783 5783 5783 5783 5783 5784 5784 5784 5784 5785 5785 5785 5785
5775 5775 5775 5775 5775 5775 5774 5773 5773 5773 5773 5773 5774 5774 5774 5774 5774 5773 5773 5773 5773 5773 5774 5774 5774 5775 5775 5776 5776 5776 5775 5775 5774 5774 5775 5775 5776 5776 5777 5778 5778 5779 5780 5780 5780 5781 5781 5782 5782 5781 5781 5781 5781 5781 5781 5781 5782 5782 5782 5782 5782 5782
5773 5774 5774 5774 5774 5773 5773 5772 5771 5772 5771 5771 5772 5772 5771 5772 5772 5772 5771 5771 5771 5771 5772 5773 5773 5774 5774 5774 5774 5774 5774 5774 5773 5773 5773 5773 5773 5774 5775 5776 5776 5777 5778 5778 5778 5779 5779 5780 5780 5779 5779 5779 5779 5779 5779 5779 5779 5779 5779 5779 5780 5780
5771 5772 5772 5772 5772 5771 5771 5770 5770 5770 5770 5770 5770 5770 5770 5770 5770 5770 5770 5770 5770 5770 5770 5771 5772 5772 5772 5772 5772 5772 5772 5772 5772 5771 5771 5771 5771 5772 5773 5774 5774 5775 5776 5776 5776 5776 5777 5777 5777 5777 5777 5777 5777 5777 5777 5777 5776 5776 5777 5776 5777 5777
5769 5769 5770 5770 5770 5769 5768 5769 5769 5769 5768 5768 5769 5769 5769 5769 5769 5769 5769 5769 5769 5769 5769 5769 5770 5770 5770 5770 5769 5770 5770 5771 5770 5770 5769 5769 5769 5770 5771 5772 5772 5773 5773 5773 5773 5774 5774 5774 5774 5775 5775 5775 5775 5774 5774 5774 5774 5774 5774 5773 5773 5774
5767 5767 5768 5768 5767 5766 5766 5767 5767 5767 5767 5767 5767 5767 5767 5768 5768 5768 5768 5768 5768 5768 5767 5767 5767 5767 5768 5768 5768 5768 5768 5768 5768 5768 5767 5767 5767 5767 5768 5769 5769 5770 5770 5771 5771 5771 5772 5772 5772 5772 5772 5772 5772 5772 5772 5771 5771 5771 5770 5770 5770 5770
5764 5764 5764 5765 5764 5764 5764 5764 5765 5765 5765 5766 5766 5766 5766 5767 5767 5767 5767 5766 5766 5766 5765 5765 5765 5765 5765 5766 5766 5766 5766 5766 5765 5765 5765 5764 5765 5765 5765 5766 5767 5767 5768 5768 5768 5769 5769 5769 5769 5769 5769 5769 5769 5769 5769 5768 5768 5768 5768 5767 5767 5767
5761 5761 5761 5761 5761 5761 5761 5762 5762 5763 5763 5764 5764 5764 5765 5765 5765 5766 5766 5765 5764 5764 5763 5763 5763 5763 5763 5763 5764 5764 5764 5764 5763 5763 5762 5762 5762 5763 5763 5764 5764 5765 5765 5766 5766 5766 5766 5766 5766 5766 5767 5766 5766 5766 5766 5765 5765 5765 5765 5765 5765 5764
5758 5758 5757 5757 5758 5759 5759 5760 5760 5761 5761 5761 5761 5761 5762 5762 5762 5763 5764 5763 5763 5762 5761 5760 5760 5760 5760 5760 5761 5761 5762 5762 5761 5761 5760 5760 5761 5761 5761 5762 5762 5763 5763 5764 5764 5764 5764 5764 5764 5764 5764 5764 5763 5763 5762 5762 5762 5762 5762 5762 5762 5762
5756 5756 5757 5757 5758 5758 5759 5759 5759 5759 5759 5759 5758 5758 5758 5759 5759 5760 5760 5761 5761 5760 5759 5758 5758 5758 5757 5757 5758 5758 5759 5760 5760 5759 5759 5759 5759 5759 5759 5760 5760 5761 5761 5761 5762 5762 5762 5762 5761 5761 5761 5761 5760 5760 5760 5759 5759 5759 5759 5759 5759 5759
5756 5756 5757 5757 5757 5757 5757 5757 5757 5757 5757 5757 5756 5755 5755 5755 5756 5757 5757 5758 5758 5757 5757 5756 5756 5755 5755 5755 5755 5756 5757 5757 5757 5757 5757 5757 5757 5757 5757 5758 5758 5758 5759 5759 5759 5759 5759 5759 5759 5758 5758 5758 5757 5757 5757 5757 5756 5756 5756 5756 5756 5756
5754 5754 5753 5753 5753 5753 5752 5752 5753 5753 5753 5753 5753 5753 5753 5753 5753 5754 5754 5755 5755 5755 5755 5754 5754 5754 5753 5753 5753 5754 5754 5755 5755 5755 5755 5755 5755 5756 5756 5756 5756 5756 5756 5756 5756 5756 5756 5756 5756 5756 5755 5755 5755 5755 5755 5754 5754 5754 5754 5754 5754 5753
5751 5750 5750 5749 5748 5747 5746 5747 5748 5749 5749 5749 5749 5750 5751 5750 5750 5751 5752 5752 5753 5753 5753 5752 5752 5752 5751 5751 5751 5752 5752 5753 5753 5753 5753 5753 5753 5754 5754 5754 5754 5754 5754 5754 5754 5754 5754 5754 5754 5753 5753 5753 5753 5753 5753 5752 5752 5752 5752 5751 5751 5751
5748 5748 5746 5744 5743 5743 5743 5744 5745 5745 5746 5745 5745 5746 5748 5747 5748 5748 5749 5749 5750 5750 5750 5750 5750 5750 5749 5749 5749 5749 5750 5750 5751 5751 5751 5751 5751 5752 5752 5752 5752 5752 5752 5752 5752 5752 5752 5752 5752 5752 5751 5751 5751 5751 5751 5750 5750 5750 5750 5750 5749 5749
5746 5745 5743 5741 5741 5742 5742 5742 5742 5743 5743 5743 5742 5744 5745 5745 5745 5746 5746 5746 5746 5747 5747 5747 5748 5748 5748 5747 5747 5748 5748 5748 5749 5749 5749 5749 5749 5750 5750 5750 5751 5751 5751 5751 5751 5751 5751 5750 5750 5750 5750 5750 5750 5749 5749 5749 5749 5749 5748 5748 5748 5748
5742 5741 5741 5741 5741 5741 5741 5740 5740 5740 5741 5741 5741 5742 5742 5743 5743 5743 5743 5743 5743 5744 5744 5745 5745 5746 5746 5746 5746 5746 5746 5746 5747 5747 5747 5748 5748 5748 5748 5749 5749 5749 5750 5750 5750 5750 5750 5749 5749 5749 5749 5749 5749 5748 5748 5748 5748 5748 5748 5747 5747 5747